Goshen, IN

7:30 AM EDT on May 25, 2017 (GMT -0400)
Goshen Municipal

Weather History for KGSH - December, 2011

Change the Weather History Date:

Thursday, December 1, 2011

  Actual Average Record
Temperature  
Mean Temperature 28 °F -  
Max Temperature 36 °F 40 °F 66 °F (1970)
Min Temperature 21 °F 28 °F -1 °F (1955)
Degree Days  
Heating Degree Days 36    
Moisture  
Dew Point 23 °F    
Average Humidity 78    
Maximum Humidity 88    
Minimum Humidity 64    
Precipitation  
Precipitation 0.02 in - - ()
Sea Level Pressure  
Sea Level Pressure 30.29 in    
Wind  
Wind Speed 4 mph (South)    
Max Wind Speed 8 mph    
Max Gust Speed -    
Visibility 10 miles    
Events      
Averages and records for this station are not official NWS values.
T = Trace of Precipitation, MM = Missing Value Source: NWS Daily Summary

Daily Weather History Graph

Daily Weather History Graph

Search for Another Location

Airport or City:

Trip Planner

Search our weather history database for the weather conditions in past years. The results will help you decide how hot, cold, wet, or windy it might be!

Date:

Astronomy

Dec. 01, 2011 Rise Set
Actual Time 7:49 AM EST 5:14 PM EST
Civil Twilight 7:19 AM EST 5:44 PM EST
Nautical Twilight 6:44 AM EST 6:19 PM EST
Astronomical Twilight 6:11 AM EST 6:52 PM EST
Moon 12:31 PM EST (12/1) No Moon Set
Length of Visible Light 10h 25m
Length of Day
9h 24m
Waxing Crescent, 43% of the Moon is Illuminated
Dec 1
Waxing Crescent
Dec 2
First Quarter
Dec 10
Full
Dec 17
Last Quarter
Dec 24
New

Hourly Weather History & Observations

Time (EST) Temp. Windchill Dew Point Humidity Pressure Visibility Wind Dir Wind Speed Gust Speed Precip Events Conditions
12:53 AM 26.1 °F 20.5 °F 21.9 °F 84% 30.21 in 10.0 mi South 4.6 mph - N/A   Clear
1:53 AM 24.1 °F 19.7 °F 21.0 °F 88% 30.23 in 10.0 mi South 3.5 mph - N/A   Clear
2:53 AM 26.1 °F - 21.9 °F 84% 30.24 in 10.0 mi Calm Calm - N/A   Clear
3:53 AM 25.0 °F - 21.0 °F 85% 30.27 in 10.0 mi Calm Calm - N/A   Clear
4:53 AM 25.0 °F - 21.0 °F 85% 30.27 in 10.0 mi Calm Calm - N/A   Clear
5:53 AM 23.0 °F 17.0 °F 19.9 °F 88% 30.28 in 8.0 mi South 4.6 mph - N/A   Clear
6:53 AM 21.0 °F 14.6 °F 18.0 °F 88% 30.30 in 5.0 mi South 4.6 mph - N/A   Clear
8:53 AM 26.1 °F 19.4 °F 21.9 °F 84% 30.32 in 9.0 mi South 5.8 mph - N/A   Clear
9:53 AM 28.0 °F 21.7 °F 23.0 °F 81% 30.34 in 10.0 mi South 5.8 mph - N/A   Clear
10:53 AM 30.9 °F 24.3 °F 24.1 °F 76% 30.34 in 10.0 mi South 6.9 mph - 0.01 in   Clear
11:53 AM 33.1 °F 28.7 °F 24.1 °F 70% 30.32 in 10.0 mi SSW 4.6 mph - 0.01 in   Clear
12:53 PM 34.0 °F 27.2 °F 25.0 °F 70% 30.30 in 10.0 mi SSW 8.1 mph - N/A   Clear
1:53 PM 36.0 °F 29.6 °F 25.0 °F 64% 30.29 in 10.0 mi South 8.1 mph - N/A   Clear
4:53 PM 34.0 °F 28.8 °F 25.0 °F 70% 30.30 in 10.0 mi South 5.8 mph - N/A   Clear
5:53 PM 33.1 °F 26.9 °F 25.0 °F 72% 30.30 in 10.0 mi South 6.9 mph - N/A   Clear
6:53 PM 34.0 °F 28.8 °F 25.0 °F 70% 30.30 in 10.0 mi South 5.8 mph - N/A   Mostly Cloudy
7:53 PM 33.1 °F 30.0 °F 26.1 °F 75% 30.30 in 10.0 mi South 3.5 mph - N/A   Overcast
8:53 PM 33.1 °F 27.7 °F 26.1 °F 75% 30.29 in 10.0 mi SSW 5.8 mph - N/A   Overcast
9:53 PM 32.0 °F 27.5 °F 26.1 °F 79% 30.29 in 10.0 mi SSW 4.6 mph - N/A   Overcast
10:53 PM 33.1 °F 28.7 °F 27.0 °F 78% 30.28 in 9.0 mi SSW 4.6 mph - N/A   Overcast